STARLINK-2149

decayed
NORAD ID: 47738 Int'l Des: 2021-017 Owner: SPXS Country: US Constellation: starlink
LEOCIRCULAR
Group

About STARLINK-2149

Description loading...

Altitude History

Altitude vs Time

uPlot chart will show altitude changes over time

Two-Line Element Set

1 47738U 21017S 24100.31883942 .02452150 43638-2 61510-2 0 9995
2 47738 53.0484 26.8598 0007873 154.9148 344.5510 15.96092386172810
Epoch: Apr 9, 2024 • Age: 12580 hours

Current Status

Position data unavailable
Launch Date Mar 4, 2021
Age 4.5 years
Decay Date Apr 12, 2024
Type internet

Technical Details

Classification Payload
Mass 260.00 kg
Dry Mass 248.00 kg
Total Mass 260.00 kg
Length 0.20 m
Diameter 2.80 m
Span 9.00 m
Shape Box + pan
Manufacturer SPXS
Bus Type Starlink
Phase Status Reentered
Owner/State SPXS/US

Large Constellations

Loading constellations...